GFSFLT1_prec_precacc24_216.txt.gz
Total_Precipitation_Accumulation
0.00 0.00 0.00 0.00 0.00 0.00 0.10 0.08 0.07 0.11 0.04 0.07 0.06 0.02 0.02 0.02 0.02 0.04 0.05 0.02 0.02 0.01 0.01 0.02 0.02 0.02 0.04 0.03 0.01 0.01 0.01 0.01
0.00 0.00 0.00 0.00 0.00 0.00 0.04 0.08 0.10 0.07 0.04 0.02 0.03 0.03 0.03 0.03 0.02 0.02 0.03 0.03 0.02 0.02 0.02 0.02 0.02 0.02 0.03 0.04 0.05 0.02 0.01 0.01
0.00 0.00 0.00 0.00 0.00 0.00 0.01 0.01 0.02 0.02 0.02 0.05 0.04 0.02 0.01 0.01 0.00 0.00 0.00 0.00 0.00 0.00 0.00 0.00 0.00 0.02 0.05 0.06 0.06 0.06 0.03 0.01
0.00 0.00 0.00 0.00 0.00 0.00 0.02 0.03 0.03 0.03 0.03 0.04 0.04 0.03 0.02 0.01 0.01 0.00 0.00 0.00 0.00 0.00 0.00 0.00 0.00 0.00 0.01 0.02 0.03 0.04 0.05 0.05
0.00 0.00 0.00 0.00 0.01 0.03 0.05 0.06 0.06 0.07 0.11 0.13 0.11 0.08 0.06 0.04 0.02 0.01 0.01 0.01 0.01 0.00 0.01 0.01 0.01 0.01 0.02 0.02 0.02 0.03 0.07 0.11
0.00 0.00 0.00 0.01 0.03 0.04 0.06 0.06 0.06 0.10 0.17 0.19 0.23 0.24 0.25 0.23 0.24 0.21 0.16 0.14 0.08 0.06 0.05 0.07 0.11 0.10 0.09 0.10 0.10 0.10 0.17 0.24
0.00 0.00 0.01 0.02 0.04 0.07 0.07 0.13 0.30 0.51 0.70 0.84 0.90 0.94 0.89 0.87 0.82 0.74 0.65 0.61 0.56 0.46 0.38 0.31 0.31 0.31 0.27 0.25 0.27 0.28 0.36 0.44
0.00 0.00 0.03 0.07 0.08 0.11 0.27 0.71 1.06 1.02 0.83 0.69 0.61 0.55 0.48 0.40 0.31 0.26 0.25 0.24 0.22 0.20 0.19 0.19 0.21 0.24 0.28 0.29 0.32 0.35 0.41 0.52
0.01 0.03 0.06 0.10 0.14 0.35 0.79 0.78 0.54 0.42 0.33 0.24 0.20 0.18 0.16 0.14 0.13 0.13 0.10 0.08 0.06 0.06 0.08 0.12 0.14 0.15 0.15 0.14 0.17 0.24 0.33 0.46
0.01 0.03 0.05 0.08 0.14 0.23 0.19 0.09 0.07 0.05 0.04 0.02 0.01 0.01 0.01 0.01 0.03 0.03 0.07 0.10 0.13 0.14 0.15 0.16 0.19 0.20 0.17 0.17 0.19 0.23 0.32 0.43
0.00 0.01 0.01 0.01 0.01 0.01 0.01 0.03 0.02 0.02 0.03 0.05 0.08 0.06 0.03 0.06 0.15 0.22 0.22 0.24 0.26 0.25 0.28 0.31 0.32 0.33 0.31 0.24 0.20 0.21 0.24 0.34
0.00 0.00 0.00 0.00 0.00 0.00 0.03 0.07 0.07 0.09 0.13 0.22 0.36 0.47 0.52 0.49 0.32 0.25 0.27 0.31 0.29 0.23 0.20 0.22 0.24 0.27 0.27 0.26 0.24 0.22 0.21 0.25
0.00 0.00 0.00 0.01 0.01 0.02 0.06 0.09 0.12 0.15 0.26 0.36 0.62 0.65 0.65 0.42 0.23 0.16 0.22 0.31 0.35 0.29 0.22 0.23 0.25 0.24 0.21 0.20 0.23 0.22 0.21 0.22
0.00 0.00 0.00 0.00 0.01 0.03 0.03 0.04 0.08 0.14 0.16 0.24 0.26 0.30 0.23 0.19 0.15 0.08 0.03 0.08 0.23 0.35 0.36 0.33 0.24 0.14 0.18 0.19 0.16 0.13 0.13 0.14
0.00 0.00 0.00 0.00 0.01 0.01 0.00 0.02 0.07 0.09 0.10 0.11 0.12 0.13 0.22 0.17 0.11 0.05 0.04 0.03 0.03 0.05 0.10 0.18 0.25 0.21 0.16 0.12 0.11 0.05 0.04 0.04
0.00 0.00 0.00 0.00 0.00 0.00 0.01 0.03 0.05 0.09 0.11 0.10 0.10 0.16 0.15 0.11 0.14 0.05 0.03 0.06 0.11 0.11 0.09 0.10 0.17 0.27 0.25 0.11 0.08 0.08 0.04 0.02
0.00 0.00 0.00 0.00 0.00 0.00 0.00 0.03 0.05 0.07 0.06 0.06 0.06 0.06 0.06 0.08 0.07 0.05 0.03 0.05 0.06 0.09 0.13 0.14 0.15 0.18 0.25 0.21 0.12 0.11 0.09 0.05
0.00 0.00 0.00 0.00 0.00 0.00 0.00 0.00 0.01 0.02 0.03 0.03 0.04 0.05 0.05 0.07 0.07 0.03 0.02 0.05 0.07 0.11 0.13 0.15 0.13 0.11 0.16 0.11 0.08 0.06 0.08 0.08
0.00 0.00 0.00 0.00 0.00 0.00 0.00 0.00 0.00 0.02 0.02 0.03 0.02 0.01 0.01 0.04 0.10 0.12 0.11 0.08 0.05 0.05 0.09 0.10 0.10 0.12 0.23 0.21 0.15 0.06 0.02 0.03

GFSFLT1_prec_precacc24_222.txt.gz
Total_Precipitation_Accumulation
0.00 0.00 0.00 0.00 0.00 0.00 0.10 0.08 0.07 0.11 0.04 0.10 0.11 0.07 0.06 0.03 0.02 0.05 0.07 0.08 0.10 0.09 0.08 0.05 0.04 0.05 0.07 0.09 0.12 0.18 0.23 0.26
0.00 0.00 0.00 0.00 0.00 0.00 0.04 0.08 0.10 0.08 0.05 0.02 0.03 0.04 0.04 0.03 0.02 0.02 0.03 0.05 0.07 0.05 0.03 0.03 0.03 0.03 0.08 0.14 0.16 0.16 0.20 0.33
0.00 0.00 0.00 0.00 0.00 0.00 0.01 0.01 0.02 0.04 0.05 0.07 0.06 0.03 0.01 0.01 0.00 0.00 0.01 0.01 0.00 0.00 0.00 0.00 0.00 0.02 0.05 0.09 0.14 0.19 0.18 0.16
0.00 0.00 0.00 0.00 0.00 0.00 0.02 0.01 0.01 0.02 0.02 0.05 0.04 0.03 0.02 0.01 0.01 0.00 0.00 0.00 0.00 0.00 0.00 0.00 0.00 0.00 0.01 0.02 0.04 0.07 0.11 0.13
0.00 0.00 0.00 0.00 0.00 0.00 0.00 0.00 0.02 0.03 0.08 0.11 0.10 0.08 0.06 0.04 0.02 0.01 0.01 0.01 0.01 0.00 0.01 0.01 0.01 0.01 0.02 0.02 0.02 0.04 0.09 0.14
0.00 0.00 0.00 0.00 0.00 0.00 0.00 0.00 0.01 0.04 0.12 0.17 0.21 0.21 0.24 0.23 0.24 0.21 0.16 0.14 0.08 0.06 0.05 0.07 0.11 0.10 0.09 0.10 0.11 0.11 0.18 0.25
0.00 0.00 0.00 0.00 0.00 0.00 0.00 0.00 0.04 0.17 0.32 0.49 0.65 0.77 0.82 0.85 0.82 0.74 0.65 0.61 0.56 0.46 0.38 0.31 0.31 0.31 0.27 0.25 0.29 0.30 0.39 0.48
0.00 0.00 0.00 0.00 0.00 0.00 0.00 0.05 0.16 0.22 0.22 0.31 0.43 0.47 0.45 0.38 0.31 0.26 0.25 0.24 0.22 0.20 0.19 0.19 0.21 0.24 0.28 0.29 0.33 0.38 0.47 0.62
0.00 0.00 0.00 0.00 0.00 0.00 0.02 0.02 0.02 0.05 0.10 0.12 0.14 0.16 0.15 0.14 0.13 0.13 0.10 0.08 0.06 0.06 0.08 0.12 0.14 0.15 0.15 0.14 0.17 0.24 0.33 0.46
0.00 0.00 0.00 0.00 0.00 0.00 0.01 0.01 0.01 0.02 0.02 0.01 0.00 0.01 0.01 0.01 0.03 0.03 0.07 0.10 0.13 0.14 0.15 0.16 0.19 0.20 0.17 0.17 0.19 0.23 0.32 0.43
0.00 0.00 0.00 0.00 0.00 0.00 0.00 0.02 0.02 0.02 0.03 0.05 0.08 0.06 0.03 0.06 0.15 0.22 0.22 0.24 0.26 0.25 0.28 0.31 0.32 0.33 0.31 0.24 0.20 0.21 0.24 0.35
0.00 0.00 0.00 0.00 0.00 0.00 0.03 0.07 0.07 0.09 0.13 0.21 0.36 0.47 0.52 0.49 0.32 0.26 0.28 0.31 0.30 0.23 0.20 0.22 0.24 0.27 0.27 0.27 0.25 0.23 0.23 0.27
0.00 0.00 0.00 0.00 0.00 0.00 0.04 0.08 0.12 0.14 0.25 0.36 0.61 0.64 0.65 0.42 0.23 0.16 0.22 0.31 0.36 0.31 0.23 0.23 0.25 0.24 0.21 0.21 0.24 0.24 0.25 0.27
0.00 0.00 0.00 0.00 0.00 0.00 0.01 0.02 0.06 0.12 0.15 0.23 0.25 0.29 0.23 0.19 0.15 0.08 0.03 0.08 0.23 0.35 0.36 0.33 0.24 0.14 0.18 0.22 0.23 0.23 0.22 0.22
0.00 0.00 0.00 0.00 0.00 0.00 0.00 0.01 0.03 0.03 0.05 0.08 0.09 0.11 0.21 0.17 0.10 0.05 0.03 0.01 0.02 0.05 0.10 0.18 0.26 0.22 0.17 0.14 0.18 0.15 0.13 0.16
0.00 0.00 0.00 0.00 0.00 0.00 0.00 0.00 0.00 0.00 0.01 0.03 0.04 0.11 0.15 0.11 0.14 0.05 0.02 0.02 0.04 0.07 0.08 0.13 0.20 0.28 0.26 0.13 0.11 0.13 0.08 0.06
0.00 0.00 0.00 0.00 0.00 0.00 0.00 0.00 0.00 0.00 0.00 0.00 0.01 0.03 0.05 0.08 0.07 0.05 0.04 0.05 0.06 0.06 0.08 0.11 0.16 0.19 0.26 0.22 0.13 0.11 0.10 0.06
0.00 0.00 0.00 0.00 0.00 0.00 0.00 0.00 0.00 0.00 0.00 0.00 0.00 0.01 0.03 0.06 0.07 0.03 0.03 0.07 0.09 0.10 0.11 0.10 0.13 0.13 0.17 0.12 0.09 0.07 0.08 0.10
0.00 0.00 0.00 0.00 0.00 0.00 0.00 0.00 0.00 0.01 0.01 0.01 0.01 0.00 0.00 0.01 0.03 0.04 0.07 0.08 0.06 0.06 0.08 0.09 0.11 0.14 0.25 0.21 0.18 0.09 0.07 0.09

GFSFLT1_prec_precacc24_225.txt.gz
Total_Precipitation_Accumulation
0.00 0.00 0.00 0.00 0.00 0.00 0.10 0.08 0.07 0.11 0.04 0.10 0.11 0.07 0.06 0.03 0.03 0.05 0.07 0.08 0.10 0.09 0.08 0.05 0.04 0.05 0.08 0.10 0.13 0.19 0.24 0.30
0.00 0.00 0.00 0.00 0.00 0.00 0.04 0.08 0.10 0.08 0.05 0.02 0.02 0.04 0.04 0.03 0.02 0.02 0.03 0.05 0.07 0.05 0.03 0.03 0.03 0.03 0.08 0.14 0.16 0.16 0.21 0.34
0.00 0.00 0.00 0.00 0.00 0.00 0.01 0.01 0.02 0.04 0.04 0.02 0.03 0.03 0.04 0.01 0.00 0.00 0.01 0.01 0.00 0.00 0.00 0.00 0.00 0.02 0.05 0.09 0.14 0.19 0.18 0.16
0.00 0.00 0.00 0.00 0.00 0.00 0.02 0.01 0.01 0.01 0.01 0.02 0.04 0.02 0.02 0.01 0.01 0.00 0.00 0.00 0.00 0.00 0.00 0.00 0.00 0.00 0.01 0.02 0.04 0.08 0.12 0.14
0.00 0.00 0.00 0.00 0.00 0.00 0.00 0.00 0.03 0.07 0.06 0.06 0.07 0.06 0.05 0.03 0.02 0.01 0.01 0.01 0.01 0.00 0.01 0.01 0.01 0.01 0.02 0.02 0.03 0.04 0.09 0.15
0.00 0.00 0.00 0.00 0.00 0.00 0.00 0.00 0.03 0.11 0.04 0.08 0.12 0.11 0.14 0.16 0.19 0.20 0.16 0.14 0.08 0.06 0.05 0.07 0.11 0.10 0.09 0.10 0.11 0.11 0.18 0.26
0.00 0.00 0.00 0.00 0.00 0.00 0.00 0.00 0.03 0.04 0.02 0.05 0.10 0.17 0.24 0.35 0.48 0.60 0.62 0.60 0.56 0.46 0.38 0.31 0.31 0.31 0.27 0.25 0.29 0.30 0.40 0.48
0.00 0.00 0.00 0.00 0.00 0.00 0.00 0.00 0.01 0.01 0.00 0.01 0.03 0.05 0.08 0.12 0.16 0.17 0.19 0.21 0.22 0.20 0.19 0.19 0.21 0.24 0.28 0.29 0.33 0.38 0.47 0.62
0.00 0.00 0.00 0.00 0.00 0.00 0.00 0.00 0.00 0.00 0.00 0.00 0.00 0.00 0.01 0.01 0.03 0.05 0.06 0.07 0.06 0.06 0.08 0.12 0.14 0.15 0.15 0.14 0.17 0.24 0.33 0.46
0.00 0.00 0.00 0.00 0.00 0.00 0.00 0.00 0.00 0.00 0.00 0.00 0.00 0.00 0.00 0.01 0.02 0.03 0.07 0.10 0.13 0.14 0.15 0.16 0.19 0.20 0.17 0.17 0.19 0.23 0.32 0.43
0.00 0.00 0.00 0.00 0.00 0.00 0.00 0.01 0.02 0.01 0.02 0.03 0.05 0.05 0.03 0.06 0.15 0.22 0.22 0.24 0.26 0.25 0.28 0.31 0.32 0.33 0.31 0.24 0.20 0.21 0.24 0.35
0.00 0.00 0.00 0.00 0.00 0.00 0.00 0.02 0.05 0.06 0.12 0.19 0.30 0.40 0.48 0.49 0.32 0.25 0.27 0.31 0.30 0.23 0.20 0.22 0.24 0.27 0.27 0.27 0.25 0.23 0.23 0.27
0.00 0.00 0.00 0.00 0.00 0.00 0.00 0.01 0.05 0.06 0.18 0.31 0.54 0.58 0.59 0.40 0.22 0.16 0.22 0.31 0.36 0.31 0.23 0.23 0.25 0.24 0.21 0.21 0.24 0.24 0.25 0.27
0.00 0.00 0.00 0.00 0.00 0.00 0.00 0.00 0.01 0.04 0.07 0.17 0.21 0.26 0.19 0.15 0.13 0.08 0.03 0.06 0.19 0.32 0.34 0.33 0.24 0.15 0.19 0.23 0.26 0.24 0.23 0.22
0.00 0.00 0.00 0.00 0.00 0.00 0.00 0.00 0.00 0.00 0.01 0.03 0.05 0.07 0.14 0.12 0.09 0.04 0.03 0.01 0.01 0.04 0.09 0.18 0.27 0.24 0.19 0.17 0.19 0.16 0.13 0.17
0.00 0.00 0.00 0.00 0.00 0.00 0.00 0.00 0.00 0.00 0.00 0.00 0.01 0.06 0.08 0.06 0.13 0.05 0.02 0.02 0.02 0.03 0.04 0.08 0.19 0.30 0.29 0.16 0.14 0.17 0.09 0.07
0.00 0.00 0.00 0.00 0.00 0.00 0.00 0.00 0.00 0.00 0.00 0.00 0.00 0.00 0.02 0.04 0.06 0.04 0.04 0.05 0.05 0.05 0.06 0.07 0.09 0.14 0.25 0.22 0.17 0.15 0.10 0.06
0.00 0.00 0.00 0.00 0.00 0.00 0.00 0.00 0.00 0.00 0.00 0.00 0.00 0.00 0.01 0.03 0.05 0.03 0.02 0.06 0.08 0.10 0.11 0.08 0.07 0.11 0.20 0.14 0.13 0.08 0.08 0.10
0.00 0.00 0.00 0.00 0.00 0.00 0.00 0.00 0.00 0.01 0.01 0.01 0.01 0.00 0.00 0.01 0.03 0.03 0.03 0.03 0.03 0.04 0.07 0.09 0.08 0.11 0.24 0.24 0.21 0.10 0.07 0.09

GFSFLT1_prec_precacc24_231.txt.gz
Total_Precipitation_Accumulation
0.00 0.00 0.00 0.00 0.00 0.00 0.10 0.08 0.07 0.12 0.05 0.10 0.11 0.07 0.07 0.04 0.03 0.05 0.09 0.09 0.10 0.10 0.09 0.06 0.05 0.06 0.08 0.11 0.14 0.20 0.25 0.31
0.00 0.00 0.00 0.00 0.00 0.00 0.04 0.08 0.10 0.08 0.04 0.01 0.02 0.03 0.04 0.03 0.02 0.04 0.04 0.07 0.11 0.08 0.03 0.03 0.03 0.04 0.08 0.15 0.17 0.18 0.22 0.34
0.00 0.00 0.00 0.00 0.00 0.00 0.01 0.01 0.01 0.04 0.04 0.02 0.02 0.01 0.03 0.02 0.03 0.02 0.02 0.02 0.03 0.01 0.00 0.00 0.00 0.02 0.05 0.09 0.15 0.21 0.20 0.18
0.00 0.00 0.00 0.00 0.00 0.00 0.02 0.01 0.00 0.01 0.01 0.03 0.03 0.01 0.01 0.01 0.04 0.02 0.02 0.02 0.01 0.00 0.00 0.00 0.00 0.00 0.02 0.02 0.05 0.09 0.14 0.15
0.00 0.00 0.00 0.00 0.00 0.00 0.00 0.00 0.03 0.07 0.05 0.04 0.02 0.04 0.04 0.01 0.02 0.06 0.02 0.01 0.00 0.00 0.01 0.01 0.01 0.01 0.02 0.02 0.03 0.05 0.13 0.18
0.00 0.00 0.00 0.00 0.00 0.00 0.00 0.00 0.03 0.13 0.09 0.04 0.05 0.04 0.07 0.08 0.05 0.02 0.01 0.01 0.02 0.03 0.03 0.06 0.09 0.09 0.09 0.10 0.12 0.11 0.19 0.29
0.00 0.00 0.00 0.00 0.00 0.00 0.01 0.01 0.03 0.06 0.07 0.06 0.04 0.10 0.11 0.05 0.03 0.01 0.01 0.02 0.04 0.05 0.08 0.13 0.18 0.23 0.25 0.25 0.29 0.31 0.40 0.49
0.00 0.00 0.00 0.00 0.00 0.00 0.01 0.01 0.02 0.04 0.07 0.04 0.04 0.11 0.09 0.04 0.00 0.00 0.00 0.00 0.01 0.02 0.04 0.07 0.12 0.19 0.25 0.28 0.32 0.37 0.47 0.62
0.00 0.00 0.00 0.00 0.00 0.00 0.00 0.01 0.02 0.02 0.03 0.02 0.03 0.07 0.03 0.00 0.00 0.00 0.00 0.00 0.00 0.00 0.02 0.04 0.08 0.09 0.10 0.11 0.15 0.23 0.32 0.46
0.00 0.00 0.00 0.00 0.00 0.00 0.00 0.00 0.00 0.00 0.01 0.01 0.01 0.01 0.00 0.00 0.00 0.00 0.00 0.00 0.01 0.01 0.03 0.06 0.10 0.12 0.11 0.11 0.14 0.21 0.32 0.43
0.00 0.00 0.00 0.00 0.00 0.00 0.00 0.00 0.00 0.00 0.00 0.01 0.04 0.05 0.02 0.03 0.08 0.07 0.02 0.02 0.05 0.06 0.08 0.15 0.19 0.22 0.22 0.19 0.18 0.20 0.23 0.35
0.00 0.00 0.00 0.00 0.00 0.00 0.00 0.00 0.00 0.00 0.00 0.03 0.16 0.23 0.30 0.38 0.22 0.08 0.04 0.09 0.12 0.11 0.11 0.15 0.19 0.23 0.24 0.24 0.24 0.23 0.24 0.29
0.00 0.00 0.00 0.00 0.00 0.00 0.00 0.00 0.00 0.00 0.00 0.09 0.24 0.13 0.16 0.12 0.11 0.04 0.04 0.09 0.17 0.21 0.19 0.22 0.24 0.23 0.21 0.21 0.25 0.25 0.28 0.31
0.00 0.00 0.00 0.00 0.00 0.00 0.00 0.00 0.00 0.00 0.00 0.05 0.11 0.15 0.09 0.06 0.04 0.03 0.02 0.01 0.07 0.20 0.26 0.28 0.22 0.14 0.18 0.23 0.26 0.27 0.26 0.26
0.00 0.00 0.00 0.00 0.00 0.00 0.00 0.00 0.00 0.00 0.00 0.00 0.01 0.04 0.10 0.07 0.05 0.02 0.02 0.01 0.01 0.02 0.04 0.10 0.22 0.23 0.18 0.16 0.19 0.17 0.16 0.20
0.00 0.00 0.00 0.00 0.00 0.00 0.00 0.00 0.00 0.00 0.00 0.00 0.00 0.00 0.02 0.02 0.07 0.02 0.02 0.02 0.02 0.03 0.03 0.07 0.13 0.23 0.23 0.11 0.10 0.15 0.13 0.11
0.00 0.00 0.00 0.00 0.00 0.00 0.00 0.00 0.00 0.00 0.00 0.00 0.00 0.00 0.01 0.02 0.01 0.01 0.04 0.04 0.05 0.05 0.05 0.07 0.09 0.11 0.19 0.16 0.10 0.06 0.08 0.09
0.00 0.00 0.00 0.00 0.00 0.00 0.00 0.00 0.00 0.00 0.00 0.00 0.00 0.00 0.01 0.03 0.03 0.01 0.02 0.05 0.05 0.03 0.04 0.05 0.06 0.11 0.19 0.13 0.10 0.05 0.05 0.05
0.00 0.00 0.00 0.00 0.00 0.00 0.00 0.00 0.00 0.01 0.01 0.01 0.01 0.00 0.00 0.01 0.03 0.02 0.03 0.02 0.02 0.02 0.03 0.04 0.04 0.10 0.23 0.24 0.22 0.10 0.06 0.07

GFSFLT1_prec_precacc24_237.txt.gz
Total_Precipitation_Accumulation
0.00 0.00 0.00 0.00 0.00 0.00 0.00 0.01 0.02 0.01 0.03 0.10 0.10 0.06 0.05 0.02 0.02 0.04 0.07 0.08 0.10 0.11 0.11 0.08 0.05 0.06 0.08 0.10 0.14 0.20 0.26 0.32
0.00 0.00 0.00 0.00 0.00 0.00 0.02 0.01 0.02 0.04 0.04 0.01 0.01 0.01 0.01 0.01 0.01 0.03 0.04 0.06 0.09 0.09 0.05 0.05 0.03 0.04 0.07 0.14 0.16 0.18 0.22 0.35
0.00 0.00 0.00 0.00 0.00 0.00 0.01 0.00 0.00 0.03 0.04 0.02 0.02 0.02 0.03 0.02 0.03 0.02 0.02 0.02 0.05 0.02 0.00 0.01 0.01 0.02 0.05 0.08 0.15 0.20 0.20 0.18
0.00 0.00 0.00 0.00 0.00 0.00 0.02 0.01 0.00 0.01 0.01 0.03 0.03 0.02 0.01 0.01 0.04 0.03 0.02 0.04 0.05 0.02 0.02 0.02 0.00 0.01 0.01 0.01 0.04 0.09 0.13 0.15
0.00 0.00 0.00 0.00 0.00 0.00 0.00 0.00 0.03 0.07 0.05 0.04 0.02 0.04 0.04 0.01 0.03 0.07 0.07 0.09 0.07 0.05 0.08 0.08 0.03 0.00 0.00 0.00 0.01 0.03 0.10 0.15
0.00 0.00 0.00 0.00 0.00 0.00 0.00 0.00 0.04 0.13 0.09 0.04 0.05 0.04 0.08 0.10 0.08 0.08 0.09 0.09 0.10 0.13 0.17 0.14 0.06 0.02 0.01 0.02 0.02 0.03 0.05 0.09
0.00 0.00 0.00 0.00 0.00 0.00 0.01 0.01 0.03 0.06 0.07 0.06 0.05 0.11 0.15 0.12 0.13 0.13 0.08 0.09 0.12 0.14 0.15 0.09 0.05 0.07 0.08 0.07 0.09 0.10 0.10 0.10
0.00 0.00 0.00 0.00 0.00 0.00 0.01 0.01 0.02 0.04 0.07 0.04 0.05 0.14 0.17 0.13 0.13 0.11 0.07 0.06 0.11 0.10 0.12 0.05 0.01 0.02 0.03 0.04 0.08 0.11 0.14 0.18
0.00 0.00 0.00 0.00 0.00 0.00 0.00 0.01 0.02 0.02 0.03 0.02 0.06 0.13 0.10 0.06 0.05 0.05 0.06 0.07 0.08 0.10 0.08 0.02 0.00 0.00 0.00 0.00 0.00 0.01 0.04 0.07
0.00 0.00 0.00 0.00 0.00 0.00 0.00 0.00 0.01 0.00 0.00 0.01 0.04 0.06 0.03 0.02 0.03 0.05 0.05 0.05 0.06 0.05 0.04 0.01 0.00 0.00 0.00 0.00 0.00 0.00 0.03 0.06
0.00 0.00 0.00 0.00 0.00 0.00 0.00 0.00 0.01 0.00 0.00 0.00 0.01 0.01 0.02 0.02 0.03 0.03 0.03 0.02 0.02 0.02 0.02 0.00 0.00 0.00 0.00 0.00 0.00 0.00 0.03 0.10
0.00 0.00 0.00 0.00 0.00 0.00 0.00 0.00 0.00 0.00 0.00 0.00 0.00 0.01 0.03 0.02 0.03 0.02 0.02 0.02 0.01 0.01 0.00 0.00 0.00 0.00 0.00 0.00 0.01 0.02 0.05 0.11
0.00 0.00 0.00 0.00 0.00 0.00 0.00 0.00 0.00 0.00 0.02 0.02 0.00 0.00 0.01 0.02 0.02 0.02 0.03 0.02 0.02 0.01 0.00 0.01 0.01 0.02 0.04 0.04 0.05 0.06 0.09 0.14
0.00 0.00 0.00 0.00 0.00 0.00 0.00 0.00 0.00 0.00 0.04 0.05 0.04 0.04 0.03 0.02 0.01 0.02 0.01 0.00 0.00 0.00 0.00 0.00 0.02 0.06 0.13 0.15 0.16 0.16 0.15 0.15
0.00 0.00 0.00 0.00 0.00 0.00 0.00 0.00 0.00 0.00 0.00 0.00 0.00 0.01 0.00 0.01 0.01 0.01 0.01 0.00 0.00 0.00 0.00 0.00 0.03 0.12 0.16 0.15 0.16 0.14 0.13 0.17
0.00 0.00 0.00 0.00 0.00 0.00 0.00 0.00 0.00 0.00 0.00 0.00 0.00 0.00 0.00 0.00 0.00 0.00 0.01 0.02 0.01 0.01 0.03 0.04 0.06 0.09 0.19 0.13 0.10 0.13 0.12 0.11
0.00 0.00 0.00 0.00 0.00 0.00 0.00 0.00 0.00 0.00 0.00 0.00 0.00 0.00 0.00 0.00 0.00 0.01 0.02 0.03 0.04 0.04 0.05 0.07 0.09 0.10 0.17 0.16 0.10 0.06 0.06 0.07
0.00 0.00 0.00 0.00 0.00 0.00 0.00 0.00 0.00 0.00 0.00 0.00 0.00 0.00 0.00 0.00 0.00 0.00 0.02 0.05 0.04 0.02 0.05 0.06 0.08 0.10 0.13 0.09 0.10 0.05 0.05 0.05
0.00 0.00 0.00 0.00 0.00 0.00 0.00 0.00 0.00 0.00 0.01 0.01 0.01 0.00 0.00 0.00 0.01 0.02 0.02 0.01 0.01 0.02 0.03 0.04 0.04 0.07 0.13 0.13 0.16 0.09 0.06 0.07

GFSFLT1_prec_precacc24_243.txt.gz
Total_Precipitation_Accumulation
0.00 0.00 0.00 0.00 0.00 0.00 0.00 0.00 0.00 0.00 0.00 0.00 0.00 0.00 0.01 0.00 0.01 0.01 0.02 0.00 0.01 0.03 0.05 0.04 0.01 0.01 0.01 0.03 0.06 0.11 0.16 0.23
0.00 0.00 0.00 0.00 0.00 0.00 0.00 0.00 0.00 0.01 0.00 0.00 0.01 0.01 0.01 0.01 0.01 0.02 0.01 0.02 0.04 0.05 0.03 0.03 0.01 0.01 0.00 0.01 0.02 0.03 0.09 0.23
0.00 0.00 0.00 0.00 0.00 0.00 0.00 0.00 0.00 0.00 0.02 0.02 0.02 0.02 0.03 0.01 0.03 0.02 0.01 0.02 0.05 0.02 0.01 0.01 0.00 0.01 0.01 0.01 0.02 0.03 0.05 0.10
0.00 0.00 0.00 0.00 0.00 0.00 0.02 0.01 0.00 0.01 0.01 0.03 0.03 0.02 0.01 0.01 0.04 0.03 0.02 0.04 0.05 0.03 0.02 0.03 0.01 0.03 0.05 0.03 0.04 0.05 0.07 0.08
0.00 0.00 0.00 0.00 0.00 0.00 0.00 0.00 0.03 0.07 0.05 0.04 0.02 0.04 0.04 0.01 0.05 0.09 0.09 0.09 0.07 0.05 0.09 0.11 0.05 0.07 0.09 0.09 0.10 0.11 0.18 0.21
0.00 0.00 0.00 0.00 0.00 0.00 0.00 0.00 0.04 0.13 0.09 0.04 0.05 0.04 0.08 0.10 0.12 0.12 0.12 0.12 0.11 0.14 0.21 0.22 0.13 0.08 0.12 0.20 0.47 0.60 0.63 0.75
0.00 0.00 0.00 0.00 0.00 0.00 0.01 0.01 0.03 0.06 0.07 0.06 0.05 0.11 0.15 0.13 0.15 0.14 0.10 0.10 0.12 0.16 0.21 0.22 0.17 0.11 0.18 0.30 0.48 0.85 0.94 0.62
0.00 0.00 0.00 0.00 0.00 0.00 0.01 0.01 0.02 0.04 0.07 0.04 0.05 0.14 0.17 0.14 0.13 0.11 0.07 0.06 0.11 0.10 0.15 0.19 0.17 0.15 0.28 0.63 0.94 0.76 0.41 0.22
0.00 0.00 0.00 0.00 0.00 0.00 0.00 0.01 0.02 0.02 0.03 0.02 0.06 0.13 0.10 0.06 0.05 0.05 0.07 0.07 0.09 0.11 0.14 0.15 0.13 0.17 0.28 0.33 0.42 0.42 0.28 0.05
0.00 0.00 0.00 0.00 0.00 0.00 0.00 0.00 0.01 0.00 0.00 0.01 0.04 0.06 0.03 0.03 0.03 0.05 0.06 0.08 0.12 0.13 0.13 0.13 0.19 0.43 0.63 0.77 0.70 0.44 0.19 0.02
0.00 0.00 0.00 0.00 0.00 0.00 0.00 0.00 0.01 0.00 0.00 0.00 0.01 0.01 0.01 0.02 0.04 0.04 0.05 0.07 0.12 0.16 0.20 0.22 0.28 0.31 0.32 0.28 0.14 0.04 0.01 0.00
0.00 0.00 0.00 0.00 0.00 0.00 0.00 0.00 0.00 0.00 0.00 0.00 0.00 0.01 0.01 0.01 0.04 0.02 0.04 0.08 0.10 0.10 0.10 0.09 0.09 0.10 0.06 0.03 0.01 0.00 0.01 0.02
0.00 0.00 0.00 0.00 0.00 0.00 0.00 0.00 0.00 0.00 0.02 0.02 0.00 0.00 0.01 0.02 0.03 0.05 0.06 0.05 0.05 0.06 0.07 0.09 0.07 0.05 0.03 0.02 0.01 0.01 0.03 0.05
0.00 0.00 0.00 0.00 0.00 0.00 0.00 0.00 0.00 0.00 0.04 0.05 0.04 0.04 0.03 0.03 0.03 0.05 0.04 0.03 0.01 0.01 0.02 0.03 0.01 0.01 0.02 0.02 0.04 0.04 0.06 0.08
0.00 0.00 0.00 0.00 0.00 0.00 0.00 0.00 0.00 0.00 0.00 0.00 0.00 0.01 0.00 0.01 0.01 0.01 0.01 0.00 0.00 0.00 0.01 0.01 0.02 0.04 0.04 0.06 0.04 0.04 0.07 0.10
0.00 0.00 0.00 0.00 0.00 0.00 0.00 0.00 0.00 0.00 0.00 0.00 0.00 0.01 0.00 0.00 0.00 0.00 0.00 0.00 0.01 0.02 0.02 0.04 0.06 0.05 0.07 0.08 0.08 0.08 0.09 0.08
0.00 0.00 0.00 0.00 0.00 0.00 0.00 0.00 0.00 0.00 0.00 0.00 0.00 0.00 0.01 0.00 0.00 0.00 0.00 0.00 0.01 0.02 0.02 0.06 0.08 0.10 0.12 0.09 0.07 0.06 0.06 0.06
0.00 0.00 0.00 0.00 0.00 0.00 0.00 0.00 0.00 0.00 0.00 0.00 0.00 0.00 0.00 0.00 0.00 0.00 0.00 0.00 0.00 0.01 0.03 0.05 0.07 0.10 0.11 0.08 0.08 0.05 0.05 0.05
0.00 0.00 0.00 0.00 0.00 0.00 0.00 0.00 0.00 0.00 0.00 0.00 0.00 0.00 0.00 0.01 0.02 0.01 0.01 0.01 0.01 0.02 0.03 0.04 0.04 0.06 0.09 0.07 0.08 0.04 0.02 0.04